Weather History for Lublinek, Poland

Change the Weather History Date:

Friday, February 8, 2013

  Actual Average Record
Temperature  
Mean Temperature 26 °F -  
Max Temperature 32 °F - - ()
Min Temperature 19 °F - - ()
Degree Days  
Heating Degree Days 38    
Moisture  
Dew Point 26 °F    
Average Humidity 92    
Maximum Humidity 100    
Minimum Humidity 75    
Precipitation  
Precipitation 0.00 in - - ()
Sea Level Pressure  
Sea Level Pressure 29.80 in    
Wind  
Wind Speed 5 mph ()    
Max Wind Speed 9 mph    
Max Gust Speed -    
Visibility 3.2 miles    
Events Fog , Snow    
T = Trace of Precipitation, MM = Missing Value Source: Averaged Metar Reports

Daily Weather History Graph

Daily Weather History Graph

Search for Another Location

Airport:

Trip Planner

Search our weather history database for the weather conditions in past years. The results will help you decide how hot, cold, wet, or windy it might be!

Date:

Astronomy

Feb. 08, 2013 Rise Set
Actual Time 7:09 AM CET 4:44 PM CET
Civil Twilight 6:34 AM CET 5:19 PM CET
Nautical Twilight 5:54 AM CET 5:59 PM CET
Astronomical Twilight 5:15 AM CET 6:38 PM CET
Moon 5:32 AM CET (2/8) 2:50 PM CET (2/8)
Length of Visible Light 10h 45m
Length of Day
9h 34m
Waning Crescent, 5% of the Moon is Illuminated
Feb 8
Waning Crescent
Feb 10
New
Feb 17
First Quarter
Feb 25
Full
Mar 4
Last Quarter

Hourly Weather History & Observations

Time (CET) Temp. Windchill Dew Point Humidity Pressure Visibility Wind Dir Wind Speed Gust Speed Precip Events Conditions
12:00 AM 30.2 °F 24.3 °F 30.2 °F 100% 29.71 in 1.1 mi West 5.8 mph - N/A Snow Light Snow
12:30 AM 30.2 °F 23.4 °F 30.2 °F 100% 29.71 in 1.1 mi West 6.9 mph - N/A Snow Snow
1:00 AM 30.2 °F 23.4 °F 30.2 °F 100% 29.71 in 1.9 mi West 6.9 mph - N/A Snow Light Snow
1:30 AM 30.2 °F 23.4 °F 30.2 °F 100% 29.71 in 1.9 mi WNW 6.9 mph - N/A Snow Light Snow
2:00 AM 30.2 °F 24.3 °F 30.2 °F 100% 29.71 in 3.7 mi WNW 5.8 mph - N/A Snow Light Snow
2:30 AM 30.2 °F 24.3 °F 30.2 °F 100% 29.71 in 3.1 mi West 5.8 mph - N/A Snow Light Snow
3:00 AM 30.2 °F 24.3 °F 28.4 °F 93% 29.71 in 3.1 mi West 5.8 mph - N/A Snow Light Snow
3:30 AM 30.2 °F 23.4 °F 28.4 °F 93% 29.71 in 3.1 mi West 6.9 mph - N/A   Mostly Cloudy
4:00 AM 28.4 °F 21.2 °F 28.4 °F 100% 29.71 in 2.2 mi West 6.9 mph - N/A   Mostly Cloudy
4:30 AM 28.4 °F 21.2 °F 28.4 °F 100% 29.71 in - West 6.9 mph - N/A   Overcast
5:00 AM 28.4 °F 20.4 °F 26.6 °F 93% 29.74 in - West 8.1 mph - N/A   Overcast
5:30 AM 26.6 °F 20.0 °F 26.6 °F 100% 29.74 in 1.6 mi West 5.8 mph - N/A   Overcast
6:00 AM 26.6 °F 20.0 °F 26.6 °F 100% 29.74 in 1.2 mi WNW 5.8 mph - N/A   Overcast
6:30 AM 28.4 °F 23.3 °F 26.6 °F 93% 29.74 in 1.9 mi West 4.6 mph - N/A   Overcast
7:00 AM 28.4 °F 21.2 °F 26.6 °F 93% 29.77 in 2.8 mi West 6.9 mph - N/A   Mostly Cloudy
7:30 AM 28.4 °F 23.3 °F 26.6 °F 93% 29.77 in - West 4.6 mph - N/A   Mostly Cloudy
8:00 AM 28.4 °F 23.3 °F 28.4 °F 100% 29.80 in 1.2 mi SSW 4.6 mph - N/A   Overcast
8:30 AM 28.4 °F 22.2 °F 28.4 °F 100% 29.80 in 1.4 mi SW 5.8 mph - N/A Snow Light Snow
9:00 AM 28.4 °F 22.2 °F 28.4 °F 100% 29.80 in 1.4 mi WSW 5.8 mph - N/A Snow Light Snow
9:30 AM 30.2 °F 24.3 °F 28.4 °F 93% 29.80 in 1.7 mi WSW 5.8 mph - N/A   Mostly Cloudy
10:00 AM 30.2 °F 24.3 °F 28.4 °F 93% 29.80 in 1.9 mi West 5.8 mph - N/A   Mostly Cloudy
10:30 AM 30.2 °F 22.6 °F 28.4 °F 93% 29.80 in 3.7 mi West 8.1 mph - N/A   Mostly Cloudy
11:00 AM 32.0 °F 24.8 °F 26.6 °F 80% 29.80 in 3.7 mi West 8.1 mph - N/A   Mostly Cloudy
11:30 AM 32.0 °F 24.8 °F 26.6 °F 80% 29.80 in 5.0 mi WNW 8.1 mph - N/A   Scattered Clouds
12:00 PM 30.2 °F 25.4 °F 26.6 °F 86% 29.80 in 4.3 mi West 4.6 mph - N/A   Mostly Cloudy
12:30 PM 32.0 °F 27.5 °F 26.6 °F 80% 29.83 in 5.0 mi West 4.6 mph - N/A   Mostly Cloudy
1:30 PM 32.0 °F 25.6 °F 26.6 °F 80% 29.83 in 4.3 mi WNW 6.9 mph - N/A   Mostly Cloudy
2:00 PM 32.0 °F 26.4 °F 26.6 °F 80% 29.83 in 5.6 mi West 5.8 mph - N/A   Scattered Clouds
2:30 PM 32.0 °F 24.8 °F 24.8 °F 75% 29.83 in 5.6 mi West 8.1 mph - N/A   Scattered Clouds
3:00 PM 32.0 °F 24.2 °F 26.6 °F 80% 29.83 in 6.2 mi West 9.2 mph - N/A   Scattered Clouds
3:30 PM 32.0 °F 25.6 °F 26.6 °F 80% 29.83 in 6.2 mi West 6.9 mph - N/A   Scattered Clouds
4:00 PM 30.2 °F 24.3 °F 24.8 °F 80% 29.83 in 6.2 mi WNW 5.8 mph - N/A   Scattered Clouds
4:30 PM 30.2 °F 21.9 °F 24.8 °F 80% 29.83 in 5.6 mi West 9.2 mph - N/A   Scattered Clouds
5:00 PM 28.4 °F 24.6 °F 24.8 °F 86% 29.86 in 5.6 mi West 3.5 mph - N/A   Unknown
5:30 PM 28.4 °F - 24.8 °F 86% 29.86 in 5.0 mi Calm Calm - N/A   Unknown
6:00 PM 26.6 °F - 23.0 °F 86% 29.86 in 4.3 mi Calm Calm - N/A   Scattered Clouds
6:30 PM 26.6 °F - 24.8 °F 93% 29.86 in 3.7 mi West 1.2 mph - N/A   Partly Cloudy
7:00 PM 26.6 °F - 24.8 °F 93% 29.86 in 4.3 mi Calm Calm - N/A   Unknown
7:30 PM 24.8 °F - 23.0 °F 93% 29.86 in 3.1 mi Calm Calm - N/A   Mist
8:00 PM 23.0 °F - 21.2 °F 93% 29.89 in 2.2 mi Calm Calm - N/A   Mist
8:30 PM 24.8 °F - 23.0 °F 93% 29.89 in 3.1 mi Calm Calm - N/A   Mist
9:00 PM 21.2 °F - 19.4 °F 93% 29.89 in 2.5 mi West 2.3 mph - N/A Fog Fog
9:30 PM 21.2 °F - 21.2 °F 100% 29.89 in 2.5 mi South 1.2 mph - N/A Fog Fog
10:00 PM 21.2 °F - 19.4 °F 93% 29.89 in 2.2 mi Calm Calm - N/A   Mist
10:30 PM 21.2 °F - 21.2 °F 100% 29.89 in - Calm Calm - N/A   Mist
11:00 PM 21.2 °F - 19.4 °F 93% 29.89 in 1.7 mi Calm Calm - N/A   Mist
11:30 PM 19.4 °F - 17.6 °F 93% 29.89 in 1.2 mi WNW 1.2 mph - N/A   Mist